sat.trackr.live / text

‹ back to catalog

FLOCK 4BE-18

NORAD 60480 · 2024-149N

PAYLOAD ACTIVE UNKNOWN

§ Identity

Operator
Country
US
Launch date
2024-08-16
Launch site
AFWTR
Launch vehicle
Mass (kg)
RCS (m²)

Purposes: earth_obs

External: N2YO · Heavens-Above · Gunter

§ Orbital elements

Epoch: 2026-05-25T03:58:23.384352Z

Period
93.44 min
Inclination
97.3723°
Eccentricity
0.0002623
Mean motion
15.41014707 rev/d
Perigee alt
441.3 km
Apogee alt
444.9 km
Semi-major
6,821.3 km
B*
4.0163e-4
RAAN
228.6688°
Arg perigee
2.4036°
Mean anomaly
357.7223°
Rev number
9,876

§ Raw data

FLOCK 4BE-181 60480U 24149N   26145.16554843  .00016500  00000+0  40163-3 0  99902 60480  97.3723 228.6688 0002623   2.4036 357.7223 15.41014707 98768

JSON: /api/v1/satellites/60480 · /tle

For live sub-satellite position, see the globe view (requires WebGL).

§ Visibility from observer

Set your observer location to see the next 7 days of passes ≥ 10°. The values pass through the URL so the page stays shareable.

No JS? Fill the form by hand. The geolocation button needs JavaScript.